TimeCDT,TemperatureF,Dew PointF,Humidity,Sea Level PressureIn,VisibilityMPH,Wind Direction,Wind SpeedMPH,Gust SpeedMPH,PrecipitationIn,Events,Conditions,WindDirDegrees,DateUTC
12:54 AM,46.0,36.0,68,29.84,10.0,WNW,11.5,-,N/A,,Clear,300,2014-04-01 05:54:00
1:54 AM,44.1,30.9,60,29.87,10.0,West,11.5,-,N/A,,Clear,280,2014-04-01 06:54:00
2:54 AM,37.9,21.9,53,29.89,10.0,West,19.6,26.5,N/A,,Clear,280,2014-04-01 07:54:00
3:54 AM,33.1,18.0,54,29.91,10.0,West,12.7,25.3,N/A,,Clear,270,2014-04-01 08:54:00
4:54 AM,32.0,18.0,56,29.94,10.0,West,16.1,25.3,N/A,,Clear,270,2014-04-01 09:54:00
5:54 AM,32.0,18.0,56,29.96,10.0,West,15.0,24.2,N/A,,Clear,280,2014-04-01 10:54:00
6:54 AM,30.0,19.0,64,29.99,10.0,West,16.1,27.6,N/A,,Clear,270,2014-04-01 11:54:00
7:54 AM,30.9,18.0,59,30.01,10.0,West,17.3,27.6,N/A,,Clear,270,2014-04-01 12:54:00
8:54 AM,33.1,19.0,56,30.03,10.0,West,16.1,-,N/A,,Clear,270,2014-04-01 13:54:00
9:54 AM,37.0,21.0,52,30.05,10.0,West,16.1,-,N/A,,Clear,260,2014-04-01 14:54:00
10:54 AM,39.9,21.9,49,30.07,10.0,West,15.0,23.0,N/A,,Clear,270,2014-04-01 15:54:00
11:54 AM,44.1,24.1,45,30.09,10.0,West,13.8,24.2,N/A,,Clear,280,2014-04-01 16:54:00
12:54 PM,48.0,25.0,41,30.09,10.0,WNW,11.5,21.9,N/A,,Clear,290,2014-04-01 17:54:00
1:54 PM,48.9,26.1,41,30.08,10.0,NW,13.8,18.4,N/A,,Clear,310,2014-04-01 18:54:00
2:54 PM,50.0,27.0,41,30.05,10.0,Calm,Calm,-,N/A,,Clear,0,2014-04-01 19:54:00
3:54 PM,51.1,27.0,39,30.02,10.0,NW,5.8,-,N/A,,Clear,320,2014-04-01 20:54:00
4:54 PM,52.0,27.0,38,30.04,10.0,North,4.6,-,N/A,,Partly Cloudy,350,2014-04-01 21:54:00
5:54 PM,51.1,27.0,39,30.08,10.0,WNW,6.9,-,N/A,,Overcast,300,2014-04-01 22:54:00
6:54 PM,50.0,28.9,44,30.08,10.0,Calm,Calm,-,N/A,,Overcast,0,2014-04-01 23:54:00
7:54 PM,48.0,30.9,52,30.07,10.0,NNE,5.8,-,N/A,,Overcast,20,2014-04-02 00:54:00
8:54 PM,46.9,33.1,59,30.08,10.0,NE,4.6,-,0.00,,Mostly Cloudy,40,2014-04-02 01:54:00
9:54 PM,46.0,30.9,56,30.06,10.0,NE,6.9,-,0.00,,Overcast,50,2014-04-02 02:54:00
10:54 PM,46.9,32.0,56,30.06,10.0,East,5.8,-,N/A,,Overcast,80,2014-04-02 03:54:00
11:54 PM,45.0,35.1,68,30.08,10.0,ENE,9.2,-,0.01,,Overcast,60,2014-04-02 04:54:00